www.pogodaiklimat.ru

Погода и климат >> Архив погоды >> Казахстан >> Актогай


ПОГОДА в Актогае

  • Прогноз погоды в Актогае
  • Монитор погоды в Актогае
  • Климат города

АРХИВ ПОГОДЫ в Актогае

Время (UTC), дата Ветер
(напр.,м/с)
 
Видим.   Явления Облачность Т
(С)
Тd
(С)
f
(%)
Тe
(С)
Тes
(С)
Комфортность P
(гПа)
Po
(гПа)
Тmin
(С)
Tmax
(С)
R
(мм)
R24
(мм)
S
(см)
06 16.09 З 1 50 км 8/8 1000 м
[Sc]
+20.5 +10.7 53 +23 +25 комфорт 1017.0 930.3 +3.0
09 16.09 СЗ 5 50 км 8/8 1000 м
[Sc]
+21.0 +10.5 51 +23 +24 комфорт 1015.8 923.9
12 16.09 С 4 50 км 8/0
[Ac trans]
+19.0 +9.3 53 +20 +20 1016.4 929.3
15 16.09 С 4 н/о ясно +10.3 +2.4 58 +8 +8 1020.8 930.6 +21.3
18 16.09 СЗ 2 н/о ясно +8.5 0.0 55 +7 +7 1021.1 930.3 +21.3
21 16.09 СЗ 3 н/о ясно +6.0 0.0 65 +3 +3 1021.6 930.0
00 17.09 СЗ 3 н/о ясно +3.5 -1.9 68 0 0 1022.3 929.8
06 17.09 СВ 5 50 км 6/6 1000 м
[Sc]
+14.8 +6.9 59 +13 +15 1019.3 930.6 +3.4
09 17.09 СВ 2 50 км 3/3 1000 м
[Sc]
+17.0 +7.6 54 +17 +23 1018.1 930.2
12 17.09 СВ 5 50 км 3/0
[Ac trans]
+16.0 +7.7 58 +15 +15 1019.3 931.0
15 17.09 СВ 1 н/о ясно +8.5 +1.2 60 +8 +8 1023.3 932.3 +17.2
18 17.09 штиль 0 н/о ясно +6.3 -0.2 63 +6 +6 1024.8 933.0 +17.2
21 17.09 З 1 н/о ясно +4.2 -1.7 65 +3 +3 1026.0 933.4
00 18.09 СЗ 2 н/о ясно +3.7 -1.6 68 +1 +1 1027.0 934.1
06 18.09 ЮВ 2 50 км ясно +10.0 -2.8 41 +9 +18 1026.1 935.3 +3.6
09 18.09 ЮВ 5 50 км ясно +17.4 +4.3 42 +17 +21 1023.7 935.3
12 18.09 ЮВ 4 50 км ясно +17.1 +4.7 44 +17 +17 1023.8 935.3
15 18.09 штиль 0 н/о ясно +12.0 +3.3 55 +12 +12 1025.4 935.3 +17.5
18 18.09 штиль 0 н/о ясно +6.0 +1.1 71 +5 +5 1026.6 935.3 +17.5
21 18.09 штиль 0 н/о ясно +4.3 -1.8 64 +4 +4 1026.7 934.0
00 19.09 штиль 0 н/о ясно +3.5 -2.5 65 +3 +3 1025.9 933.0
06 19.09 ЮВ 2 50 км ясно +15.0 +8.3 64 +15 +24 1017.6 929.2 +3.5
09 19.09 Ю 3 50 км ясно +19.0 +9.3 53 +20 +26 1013.6 926.7
12 19.09 Ю 5 50 км ясно +21.0 +12.0 56 +23 +24 комфорт 1011.5 925.4
15 19.09 В 1 н/о ясно +12.0 +4.6 61 +12 +12 1014.5 925.3 +21.2
18 19.09 СЗ 1 н/о ясно +7.0 +1.0 66 +6 +6 1015.5 924.7 +21.2
21 19.09 СЗ 1 н/о ясно +4.0 +7.2 100 +2 +2 1014.7 923.2
00 20.09 штиль 0 н/о ясно +3.0 -1.8 71 +2 +2 1014.8 922.8
06 20.09 Ю 3 50 км 5/0
[Ci fib]
+18.0 +7.3 50 +18 +25 1009.2 922.4 +2.9
09 20.09 Ю 6 50 км 8/0
[As op]
+23.7 +10.6 44 +25 +26 комфорт 1005.6 920.8
12 20.09 ЮЗ 7 50 км 8/0
[As op]
+21.0 +9.5 48 +22 +23 комфорт 1006.8 921.1
15 20.09 Ю 4 н/о 8/0
[As op]
+18.0 +8.5 54 +18 +18 1008.9 922.1 +23.9
18 20.09 Ю 1 н/о 5/0
[As op]
+13.0 +5.4 60 +13 +13 1011.4 922.9 +23.9
21 20.09 Ю 2 н/о 8/0
[As op]
+12.0 +4.9 62 +11 +11 1009.7 921.1
00 21.09 СЗ 7 н/о 8/8 600 м
[Sc]
+8.5 +2.9 68 +4 +4 1013.5 923.4
06 21.09 ЮЗ 7 50 км 3/0
[Ac trans]
+12.5 +5.0 60 +10 +12 1015.8 926.7 +8.4
09 21.09 ЮЗ 6 50 км 5/0
[Ac trans]
+15.0 +6.0 55 +13 +15 1014.6 926.4
12 21.09 З 6 50 км 8/0
[As op]
+13.0 +4.9 58 +11 +11 1016.7 927.7
15 21.09 ЮЗ 3 н/о 8/0
[As op]
+11.0 +3.6 60 +9 +9 1018.8 928.9 +15.2
18 21.09 ЮЗ 2 н/о 9/0
[As op]
+8.0 +1.4 63 +6 +6 1020.2 929.3 +15.2
21 21.09 ЮЗ 2 н/о 5/0
[As op]
+7.0 +0.7 64 +5 +5 1019.7 928.5
00 22.09 ЮЗ 3 н/о 5/0
[As op]
+8.5 +1.8 63 +6 +6 1019.2 928.5
06 22.09 Ю 2 50 км 9/9 1000 м
[Cu Sc]
+15.0 +1.9 41 +15 +16 1016.8 928.0 +6.9
09 22.09 штиль 0 50 км ясно +18.0 +6.3 46 +18 +27 1015.4 928.0
12 22.09 штиль 0 50 км ясно +17.5 +6.8 49 +18 +18 1015.6 928.0
15 22.09 штиль 0 н/о ясно +12.4 +3.6 55 +12 +12 1017.3 928.0 +18.2
18 22.09 СЗ 1 н/о 6/0
[Ac und]
+8.0 +2.2 67 +7 +7 1018.8 928.0 +18.2
21 22.09 С 1 н/о 6/6 600 м
[Sc]
+6.4 +1.4 70 +6 +6 1018.2 927.0

 

Местоположение метеостанции Актогай (Карагандинская область, Казахстан): широта 48.30 долгота 74.97 высота над уровнем моря 780 м.

В архиве по умолчанию представлена погода в Актогае за последнюю неделю. Архивные данные за месяц целиком и за предыдущие месяцы, начиная с января 2011 года, Вы можете получить, выбрав интересующий диапазон дат из раскрывающегося списка и нажав кнопку "Ввод!".


*Определитесь, кто Вы:
робот инопланетянин человек

Внимание! Время в таблицах - всемирное. Для получения местного времени необходимо прибавить поправку, которая в Актогае равна 5 ч.

Смотрите также архив погоды в соседних городах и на ближайших метеорологических станциях:

Погода в Бектау-Ате (Карагандинская область, Казахстан) (95 км)
Погода в Аксу-Аюлы (Карагандинская область, Казахстан) (102 км)
Погода в Бесобе (Карагандинская область, Казахстан) (122 км)
Погода в Каркаралинске (Карагандинская область, Казахстан) (127 км)
Погода в Агадыре (Карагандинская область, Казахстан) (155 км)
Погода в Жарыке (Карагандинская область, Казахстан) (166 км)
Погода в Балхаше (Карагандинская область, Казахстан) (167 км)
Погода в Моинты (Карагандинская область, Казахстан) (170 км)
Погода в Егиндыбулаке (Карагандинская область, Казахстан) (195 км)
Погода в Кайнаре (Восточно-Казахстанская область, Казахстан) (202 км)

Пояснения к столбцам:

Ветер - указаны скорость ветра в м/с - средняя за 10 мин, порывы в срок и между сроками (в фигурных скобках) и направление, откуда дует ветер: С - северный, СВ - северо-восточный, В - восточный, ЮВ - юго-восточный, Ю - южный, ЮЗ - юго-западный, З - западный, СЗ - северо-западный.
Видимость - горизонтальная дальность видимости в метрах или километрах. При видимости от 1 до 10 км при отсутствии осадков обычно наблюдается дымка, при ухудшении видимости до 1 км и менее - туман. В сухую погоду видимость может ухудшаться дымом, пылью или мглою.
Явления - указаны атмосферные явления, наблюдавшиеся в срок или в последний час перед сроком; фигурными скобками обозначены явления, наблюдавшиеся между сроками (за 1-3 часа до срока); квадратными скобками обозначены град или гололедные отложения с указанием их диаметра в мм.
Облачность - указаны через наклонную черту общая и нижняя облачность в баллах и высота нижней границы облаков в метрах; квадратными скобками обозначены формы облаков: Ci - перистые, Cs - перисто-слоистые, Cc - перисто-кучевые, Ac - высококучевые, As - высокослоистые, Sc - слоисто-кучевые, Ns - слоисто-дождевые, Cu - кучевые, Cb - кучево-дождевые. Подробнее классификацию облаков см. в Атласе облаков (PDF).
T - Температура воздуха - температура, измеренная на высоте 2 м над землей.
Td - Температура точки росы - температура, при понижении до которой содержащийся в воздухе водяной пар достигнет насыщения.
f - Относительная влажность воздуха - влажноcть воздуха, измеренная на высоте 2 м над землей.
Te - Эффективная температура - температура, которую ощущает одетый по сезону человек в тени. Характеристика душности погоды. При расчете учитывается влияние влажности воздуха и скорости ветра на теплоощущения человека.
Tes - Эффективная температура на солнце - температура, которую ощущает человек, с поправкой на солнечный нагрев. Характеристика знойности погоды. Зависит от высоты солнца над горизонтом, облачности и скорости ветра. Ночью, в пасмурную погоду, а также при ветре 12 м/с и более поправка равна нулю.
P - Атмосферное давление - приведенное к уровню моря атмосферное давление.
Po - Атмосферное давление - измеренное на уровне метеостанции атмосферное давление.
Tmin - Минимальная температура - минимум температуры воздуха на высоте 2 м над землей.
Tmax - Максимальная температура - максимум температуры воздуха на высоте 2 м над землей.
R - Количество осадков - Количество выпавших осадков за период времени, мм. При наведении курсора мыши на число - период времени, за который выпало указанное количество осадков.
R24 - Количество осадков - Количество выпавших осадков за 24 часа, мм.
S - Снежный покров - Высота снежного покрова, см. При наведении курсора мыши на число - состояние снежного покрова и степень покрытия местности в баллах.